Starlink 4521

operational
NORAD ID: 53391 Int'l Des: 2022-097 Owner: SPXS Country: US Constellation: starlink
LEOCIRCULAR

About Starlink 4521

Description loading...

Live Position

Loading 3D Globe...

Upcoming Passes

Altitude History

Altitude vs Time

uPlot chart will show altitude changes over time

Two-Line Element Set

1 53391U 22097D 26066.19528171 -.00000906 00000-0 -38843-4 0 9992
2 53391 53.2173 135.3180 0001398 93.0281 267.0871 15.08824406198297
Epoch: Mar 7, 2026 • Age: 16 hours

Current Status

Altitude 549.1 km
Velocity 7.59 km/s
Sub-Earth Point -28.66°S, 69.11°E
Launch Date Aug 10, 2022
Age 3.5 years
Type internet

Technical Details

Classification Payload
Mass 297.00 kg
Dry Mass 275.00 kg
Total Mass 297.00 kg
Length 0.20 m
Diameter 2.80 m
Span 9.00 m
Shape Box + pan
Manufacturer SPXS
Bus Type Starlink
Phase Status In Orbit
Owner/State SPXS/US

Large Constellations

Loading constellations...